THOR ABLESTAR DEB, 48824

Orbit data source: Space-Track

THOR ABLESTAR DEB, 48824 is space debris in LEO originally from a launch on Thu, 29 Jun 1961 UTC launched from the Air Force Eastern Test Range (AFETR). Debris objects in space refer to the collection of defunct objects orbiting the Earth. Examples of debris include non-operational satellites, rocket bodies, and fragments generated from explosions, collisions, or faulty payload assembly.

Loading next visibility...
Identifier
48824, 1961-015NC
Orbit
LEO
Country
Flag of USUS
Related business
Manufacturer
Unknown
Mission
Spacecraft
Bus & Motor
Unknown
Mass
Unknown
Launch date (UTC)
1961-06-29 (64 years ago)
Launch vehicle
Unknown
Launch site
Air Force Eastern Test Range (AFETR)
Object type
Payload
Rocket body
Debris
Shape & HBR
Unknown shape, 0.1 m
Radar Cross Section
Small (<0.1 m²)

Expand to show TLE details & history
Last TLE update: 2 days ago

TLE from 2 days ago
0 THOR ABLESTAR DEB
1 48824U 61015NC  25297.87332836  .00000238  00000-0  19755-3 0  9997
2 48824  67.0029 160.8048 0086666 100.8423 260.2432 14.02662783610217
Epoch: 2025-10-24T20:57Z
TLE epoch observation values (Epoch: 2025-10-24T20:57:35.570Z)
Latitude
-0.00003°
Longitude
172.8946°
Altitude
897.889 km
Speed
7.398 km/s
True Right ascension
10h 43m 13s
True Declination
0° 00' 00"
Sunlit
Object was in daylight at epoch
Visualization orbit readout
Latitude
Unknown
Longitude
Unknown
Altitude
Unknown
Speed
Unknown
Apparent Right ascension
Unknown
Apparent Declination
Unknown
Sunlit
N/A
Visualization observer readout
Local Sidereal Time
12:54:18
Azimuth
Unknown
Elevation
Unknown
Doppler factor
Unknown
Orbital elements
Apogee altitude
945.879 km
Perigee altitude
820.021 km
Semi-major axis
7,261.087 km
Eccentricity
0.00867
Inclination
67.0029°
RAAN
160.8048°
Arg. of periapsis
100.8423°
True anomaly
259.26629°
Mean anomaly
260.2432°
Eccentric anomaly
259.75456°
Mean motion
3.50785 °/min
Orbital period
102.63 mins
BSTAR
0.00019755
Loading maneuver chart data...
Computing Atmospheric mass density...

Documentation

Showing up to 5 results
|